This is the latest recevied weather packets stored in our database for station/object K3FAZ. If no packets are shown the sender has not sent any weather packets the latest 1 day(s).
| Time | Temp. | Humidity | Pressure | Rain* | Wind** | Luminosity | Snow |
|---|---|---|---|---|---|---|---|
| 1778023491 | 21.11° C | 57% | 1010.2 hPa | 0 mm | 0.89 m/s, 180° | 45 W/m² | - |
| 1778023188 | 21.11° C | 57% | 1010.2 hPa | 0 mm | 1.34 m/s, 180° | 67 W/m² | - |
| 1778022885 | 20.56° C | 56% | 1010.4 hPa | 0 mm | 0.89 m/s, 91° | 53 W/m² | - |
| 1778022583 | 21.11° C | 57% | 1010.3 hPa | 0 mm | 1.34 m/s, 291° | 39 W/m² | - |
| 1778022281 | 21.11° C | 56% | 1010.2 hPa | 0 mm | 1.34 m/s, 307° | 58 W/m² | - |
| 1778021977 | 21.11° C | 56% | 1010.3 hPa | 0 mm | 0.89 m/s, 186° | 60 W/m² | - |
| 1778021674 | 21.11° C | 56% | 1010.2 hPa | 0 mm | 2.24 m/s, 218° | 66 W/m² | - |
| 1778021370 | 21.11° C | 56% | 1010.1 hPa | 0 mm | 1.79 m/s, 185° | 63 W/m² | - |
| 1778021067 | 21.11° C | 55% | 1010.2 hPa | 0 mm | 1.34 m/s, 220° | 76 W/m² | - |
| 1778020764 | 21.67° C | 56% | 1010.2 hPa | 0 mm | 1.79 m/s, 190° | 79 W/m² | - |
| 1778020461 | 21.67° C | 54% | 1010.4 hPa | 0 mm | 1.79 m/s, 164° | 85 W/m² | - |
| 1778020157 | 21.67° C | 55% | 1010.4 hPa | 0 mm | 2.24 m/s, 194° | 94 W/m² | - |
| 1778019854 | 21.67° C | 55% | 1010.4 hPa | 0 mm | 2.24 m/s, 246° | 97 W/m² | - |
| 1778019550 | 21.67° C | 54% | 1010.6 hPa | 0 mm | 1.79 m/s, 189° | 122 W/m² | - |
| 1778019248 | 21.67° C | 56% | 1010.5 hPa | 0 mm | 3.58 m/s, 183° | 132 W/m² | - |
| 1778018944 | 21.67° C | 56% | 1010.6 hPa | 0 mm | 1.34 m/s, 171° | 141 W/m² | - |
| 1778018641 | 21.67° C | 59% | 1010.6 hPa | 0 mm | 2.68 m/s, 182° | 151 W/m² | - |
| 1778018339 | 21.11° C | 60% | 1010.5 hPa | 0 mm | 1.34 m/s, 207° | 164 W/m² | - |
| 1778018037 | 21.11° C | 60% | 1010.3 hPa | 0 mm | 1.34 m/s, 239° | 156 W/m² | - |
| 1778017735 | 20.56° C | 59% | 1010.3 hPa | 0 mm | 2.24 m/s, 181° | 139 W/m² | - |
| 1778017432 | 21.11° C | 59% | 1010.3 hPa | 0 mm | 0.89 m/s, 194° | 51 W/m² | - |
| 1778017129 | 21.11° C | 58% | 1010.1 hPa | 0 mm | 1.34 m/s, 155° | 21 W/m² | - |
| 1778016827 | 21.67° C | 56% | 1010.3 hPa | 0 mm | 2.68 m/s, 196° | 42 W/m² | - |
| 1778016523 | 21.67° C | 57% | 1010 hPa | 0 mm | 1.34 m/s, 204° | 74 W/m² | - |
| 1778016220 | 21.67° C | 56% | 1010.3 hPa | 0 mm | 2.24 m/s, 191° | 128 W/m² | - |
* Rain latest hour (hover to see other rain measurements)
** Current wind speed in m/s (hover to see current wind gust speed)